| time (UTC) | temp F | wind direction | speed MPH | gust MPH | rain 1hr in | rain 24hr in | rain mn in | humidity % | barometer mb |
| 20260504060104 | 61 | 325 | 0.0 | 0.0 | 0.00 | 0.00 | 0.00 | 43 | 1008.7 |
| 20260504050604 | 66 | 325 | 0.0 | 0.0 | 0.00 | 0.00 | 0.00 | 36 | 1008.5 |
| 20260504050104 | 66 | 325 | 0.0 | 0.0 | 0.00 | 0.00 | 0.00 | 35 | 1008.4 |
| 20260504045104 | 67 | 325 | 0.0 | 0.0 | 0.00 | 0.00 | 0.00 | 34 | 1008.4 |
| 20260504044603 | 67 | 325 | 0.0 | 0.0 | 0.00 | 0.00 | 0.00 | 33 | 1008.6 |
| 20260504044104 | 67 | 325 | 0.0 | 0.0 | 0.00 | 0.00 | 0.00 | 33 | 1008.6 |
| 20260504043604 | 67 | 325 | 0.0 | 0.0 | 0.00 | 0.00 | 0.00 | 33 | 1008.4 |
| 20260504043104 | 67 | 325 | 0.0 | 0.0 | 0.00 | 0.00 | 0.00 | 33 | 1008.3 |
| 20260504042604 | 68 | 325 | 0.0 | 1.0 | 0.00 | 0.00 | 0.00 | 32 | 1008.3 |
| 20260504042103 | 68 | 324 | 0.0 | 0.0 | 0.00 | 0.00 | 0.00 | 32 | 1008.3 |
| 20260504041603 | 68 | 324 | 0.0 | 2.0 | 0.00 | 0.00 | 0.00 | 32 | 1008.4 |
| 20260504041104 | 69 | 339 | 1.0 | 3.0 | 0.00 | 0.00 | 0.00 | 31 | 1008.4 |
| 20260504040604 | 69 | 327 | 1.0 | 2.0 | 0.00 | 0.00 | 0.00 | 31 | 1008.3 |
| 20260504040104 | 69 | 326 | 1.0 | 3.0 | 0.00 | 0.00 | 0.00 | 31 | 1008.2 |
| 20260504035604 | 69 | 325 | 1.0 | 3.0 | 0.00 | 0.00 | 0.00 | 30 | 1008.1 |
| 20260504035103 | 70 | 325 | 0.0 | 3.0 | 0.00 | 0.00 | 0.00 | 30 | 1008.1 |
| 20260504034603 | 70 | 331 | 2.0 | 9.0 | 0.00 | 0.00 | 0.00 | 29 | 1008.1 |
| 20260504033604 | 71 | 324 | 1.0 | 3.0 | 0.00 | 0.00 | 0.00 | 29 | 1008.0 |
| 20260504033104 | 71 | 318 | 1.0 | 6.0 | 0.00 | 0.00 | 0.00 | 29 | 1007.8 |
| 20260504032604 | 71 | 324 | 1.0 | 3.0 | 0.00 | 0.00 | 0.00 | 29 | 1007.8 |
| 20260504032104 | 71 | 309 | 1.0 | 6.0 | 0.00 | 0.00 | 0.00 | 28 | 1007.8 |
| 20260504031604 | 72 | 321 | 3.0 | 14.0 | 0.00 | 0.00 | 0.00 | 28 | 1007.7 |
| 20260504031103 | 72 | 328 | 3.0 | 10.0 | 0.00 | 0.00 | 0.00 | 28 | 1007.7 |
| 20260504030603 | 72 | 325 | 6.0 | 12.0 | 0.00 | 0.00 | 0.00 | 28 | 1007.7 |
| 20260504030104 | 72 | 20 | 6.0 | 13.0 | 0.00 | 0.00 | 0.00 | 28 | 1007.5 |
| 20260504025105 | 72 | 322 | 0.0 | 7.0 | 0.00 | 0.00 | 0.00 | 31 | 1007.5 |
| 20260504024604 | 72 | 338 | 1.0 | 13.0 | 0.00 | 0.00 | 0.00 | 31 | 1007.5 |
| 20260504024103 | 73 | 330 | 1.0 | 14.0 | 0.00 | 0.00 | 0.00 | 30 | 1007.5 |
| 20260504023603 | 74 | 331 | 1.0 | 3.0 | 0.00 | 0.00 | 0.00 | 29 | 1007.5 |
| 20260504023104 | 74 | 315 | 1.0 | 12.0 | 0.00 | 0.00 | 0.00 | 27 | 1007.6 |
| 20260504022604 | 74 | 309 | 6.0 | 14.0 | 0.00 | 0.00 | 0.00 | 26 | 1007.5 |
| 20260504022104 | 75 | 321 | 3.0 | 12.0 | 0.00 | 0.00 | 0.00 | 27 | 1007.4 |
| 20260504021604 | 75 | 326 | 4.0 | 12.0 | 0.00 | 0.00 | 0.00 | 27 | 1007.3 |
| 20260504021103 | 75 | 322 | 5.0 | 14.0 | 0.00 | 0.00 | 0.00 | 26 | 1007.2 |
| 20260504020604 | 75 | 323 | 4.0 | 12.0 | 0.00 | 0.00 | 0.00 | 26 | 1007.1 |
| 20260504020104 | 75 | 321 | 5.0 | 13.0 | 0.00 | 0.00 | 0.00 | 26 | 1007.2 |
| 20260504015604 | 76 | 325 | 4.0 | 12.0 | 0.00 | 0.00 | 0.00 | 26 | 1007.2 |
| 20260504015103 | 76 | 317 | 4.0 | 10.0 | 0.00 | 0.00 | 0.00 | 25 | 1007.2 |
| 20260504014604 | 76 | 321 | 1.0 | 12.0 | 0.00 | 0.00 | 0.00 | 24 | 1007.3 |
| 20260504014104 | 76 | 328 | 2.0 | 10.0 | 0.00 | 0.00 | 0.00 | 24 | 1007.3 |
| 20260504013604 | 76 | 329 | 5.0 | 13.0 | 0.00 | 0.00 | 0.00 | 25 | 1007.3 |
| 20260504013104 | 76 | 327 | 2.0 | 13.0 | 0.00 | 0.00 | 0.00 | 25 | 1007.3 |
| 20260504012604 | 77 | 331 | 4.0 | 10.0 | 0.00 | 0.00 | 0.00 | 25 | 1007.4 |
| 20260504012103 | 77 | 325 | 4.0 | 12.0 | 0.00 | 0.00 | 0.00 | 25 | 1007.4 |
| 20260504011103 | 77 | 331 | 0.0 | 5.0 | 0.00 | 0.00 | 0.00 | 25 | 1007.5 |
| 20260504010604 | 77 | 311 | 2.0 | 9.0 | 0.00 | 0.00 | 0.00 | 24 | 1007.5 |
| 20260504010104 | 77 | 319 | 2.0 | 12.0 | 0.00 | 0.00 | 0.00 | 24 | 1007.6 |
| 20260504005603 | 77 | 325 | 2.0 | 12.0 | 0.00 | 0.00 | 0.00 | 24 | 1007.6 |
| 20260504005104 | 77 | 327 | 1.0 | 12.0 | 0.00 | 0.00 | 0.00 | 23 | 1007.6 |
| 20260504004604 | 78 | 323 | 2.0 | 9.0 | 0.00 | 0.00 | 0.00 | 23 | 1007.7 |
| 20260504003603 | 77 | 333 | 2.0 | 10.0 | 0.00 | 0.00 | 0.00 | 24 | 1007.8 |
| 20260504002603 | 76 | 76 | 1.0 | 10.0 | 0.00 | 0.00 | 0.00 | 24 | 1007.8 |
| 20260504001604 | 76 | 341 | 0.0 | 3.0 | 0.00 | 0.00 | 0.00 | 25 | 1007.8 |
| 20260504001104 | 76 | 321 | 1.0 | 8.0 | 0.00 | 0.00 | 0.00 | 25 | 1008.0 |
| 20260504000104 | 76 | 324 | 1.0 | 5.0 | 0.00 | 0.00 | 0.00 | 24 | 1008.2 |
| 20260503235104 | 77 | 320 | 1.0 | 12.0 | 0.00 | 0.00 | 0.00 | 25 | 1008.2 |
| 20260503234604 | 77 | 330 | 1.0 | 8.0 | 0.00 | 0.00 | 0.00 | 25 | 1008.0 |
| 20260503234104 | 77 | 327 | 1.0 | 8.0 | 0.00 | 0.00 | 0.00 | 27 | 1008.1 |
| 20260503233604 | 78 | 318 | 3.0 | 9.0 | 0.00 | 0.00 | 0.00 | 26 | 1008.1 |
| 20260503233104 | 78 | 324 | 3.0 | 12.0 | 0.00 | 0.00 | 0.00 | 26 | 1008.1 |
| 20260503232604 | 79 | 346 | 3.0 | 15.0 | 0.00 | 0.00 | 0.00 | 25 | 1008.1 |
| 20260503231604 | 79 | 322 | 2.0 | 12.0 | 0.00 | 0.00 | 0.00 | 24 | 1008.0 |
| 20260503231105 | 79 | 320 | 2.0 | 12.0 | 0.00 | 0.00 | 0.00 | 23 | 1008.1 |
| 20260503230604 | 79 | 58 | 2.0 | 5.0 | 0.00 | 0.00 | 0.00 | 23 | 1008.3 |
| 20260503230104 | 79 | 320 | 0.0 | 2.0 | 0.00 | 0.00 | 0.00 | 22 | 1008.4 |
| 20260503225604 | 78 | 326 | 1.0 | 6.0 | 0.00 | 0.00 | 0.00 | 22 | 1008.4 |
| 20260503225103 | 79 | 324 | 0.0 | 1.0 | 0.00 | 0.00 | 0.00 | 23 | 1008.5 |
| 20260503224104 | 79 | 80 | 1.0 | 3.0 | 0.00 | 0.00 | 0.00 | 23 | 1008.8 |
| 20260503223603 | 79 | 322 | 1.0 | 5.0 | 0.00 | 0.00 | 0.00 | 22 | 1008.9 |
| 20260503223103 | 79 | 308 | 0.0 | 5.0 | 0.00 | 0.00 | 0.00 | 23 | 1008.9 |
| 20260503222104 | 79 | 331 | 2.0 | 10.0 | 0.00 | 0.00 | 0.00 | 24 | 1009.1 |
| 20260503221604 | 79 | 313 | 1.0 | 8.0 | 0.00 | 0.00 | 0.00 | 22 | 1009.2 |
| 20260503221103 | 79 | 337 | 0.0 | 3.0 | 0.00 | 0.00 | 0.00 | 23 | 1009.4 |
| 20260503220603 | 79 | 322 | 1.0 | 3.0 | 0.00 | 0.00 | 0.00 | 22 | 1009.6 |
| 20260503220104 | 79 | 319 | 2.0 | 8.0 | 0.00 | 0.00 | 0.00 | 21 | 1009.6 |
| 20260503215604 | 80 | 324 | 3.0 | 12.0 | 0.00 | 0.00 | 0.00 | 21 | 1009.7 |
| 20260503215104 | 80 | 324 | 0.0 | 5.0 | 0.00 | 0.00 | 0.00 | 21 | 1009.7 |
| 20260503214603 | 80 | 128 | 0.0 | 3.0 | 0.00 | 0.00 | 0.00 | 22 | 1009.7 |
| 20260503214104 | 79 | 325 | 2.0 | 6.0 | 0.00 | 0.00 | 0.00 | 23 | 1009.7 |
| 20260503213603 | 79 | 330 | 0.0 | 3.0 | 0.00 | 0.00 | 0.00 | 22 | 1009.7 |
| 20260503213104 | 79 | 329 | 1.0 | 8.0 | 0.00 | 0.00 | 0.00 | 23 | 1009.8 |
| 20260503212604 | 80 | 329 | 1.0 | 3.0 | 0.00 | 0.00 | 0.00 | 22 | 1009.9 |
| 20260503212103 | 80 | 78 | 0.0 | 3.0 | 0.00 | 0.00 | 0.00 | 22 | 1009.9 |
| 20260503211604 | 80 | 326 | 1.0 | 5.0 | 0.00 | 0.00 | 0.00 | 23 | 1010.0 |
| 20260503210104 | 79 | 97 | 0.0 | 3.0 | 0.00 | 0.00 | 0.00 | 23 | 1010.1 |
| 20260503205604 | 79 | 77 | 2.0 | 7.0 | 0.00 | 0.00 | 0.00 | 23 | 1010.3 |
| 20260503205104 | 79 | 312 | 1.0 | 7.0 | 0.00 | 0.00 | 0.00 | 25 | 1010.3 |
| 20260503204604 | 77 | 82 | 1.0 | 3.0 | 0.00 | 0.00 | 0.00 | 26 | 1010.4 |
| 20260503204104 | 77 | 310 | 1.0 | 9.0 | 0.00 | 0.00 | 0.00 | 28 | 1010.4 |
| 20260503203603 | 76 | 321 | 1.0 | 9.0 | 0.00 | 0.00 | 0.00 | 29 | 1010.5 |
| 20260503203103 | 76 | 313 | 1.0 | 3.0 | 0.00 | 0.00 | 0.00 | 30 | 1010.6 |
| 20260503202604 | 76 | 331 | 3.0 | 7.0 | 0.00 | 0.00 | 0.00 | 28 | 1010.6 |
| 20260503201603 | 76 | 322 | 1.0 | 9.0 | 0.00 | 0.00 | 0.00 | 30 | 1010.8 |
| 20260503201104 | 76 | 329 | 2.0 | 12.0 | 0.00 | 0.00 | 0.00 | 31 | 1011.0 |
| 20260503200104 | 76 | 315 | 2.0 | 7.0 | 0.00 | 0.00 | 0.00 | 30 | 1011.0 |
| 20260503195604 | 76 | 308 | 2.0 | 3.0 | 0.00 | 0.00 | 0.00 | 31 | 1011.0 |
| 20260503195104 | 75 | 319 | 3.0 | 9.0 | 0.00 | 0.00 | 0.00 | 32 | 1011.2 |
| 20260503194104 | 74 | 316 | 1.0 | 3.0 | 0.00 | 0.00 | 0.00 | 31 | 1011.6 |
| 20260503193604 | 74 | 326 | 2.0 | 3.0 | 0.00 | 0.00 | 0.00 | 30 | 1011.7 |
| 20260503193104 | 74 | 330 | 1.0 | 8.0 | 0.00 | 0.00 | 0.00 | 31 | 1011.7 |
| 20260503192604 | 74 | 335 | 1.0 | 5.0 | 0.00 | 0.00 | 0.00 | 32 | 1011.7 |
| 20260503191603 | 73 | 329 | 1.0 | 8.0 | 0.00 | 0.00 | 0.00 | 33 | 1011.9 |
| 20260503191104 | 73 | 325 | 2.0 | 6.0 | 0.00 | 0.00 | 0.00 | 33 | 1012.1 |
| 20260503190604 | 73 | 25 | 2.0 | 8.0 | 0.00 | 0.00 | 0.00 | 34 | 1012.0 |
| 20260503190104 | 73 | 326 | 3.0 | 8.0 | 0.00 | 0.00 | 0.00 | 34 | 1012.1 |
| 20260503185604 | 73 | 317 | 2.0 | 10.0 | 0.00 | 0.00 | 0.00 | 34 | 1012.1 |
| 20260503185103 | 73 | 310 | 1.0 | 3.0 | 0.00 | 0.00 | 0.00 | 36 | 1012.3 |
| 20260503184104 | 72 | 330 | 2.0 | 3.0 | 0.00 | 0.00 | 0.00 | 34 | 1012.3 |
| 20260503183604 | 73 | 314 | 1.0 | 5.0 | 0.00 | 0.00 | 0.00 | 34 | 1012.4 |
| 20260503183104 | 72 | 327 | 1.0 | 6.0 | 0.00 | 0.00 | 0.00 | 36 | 1012.5 |
| 20260503182104 | 72 | 319 | 1.0 | 3.0 | 0.00 | 0.00 | 0.00 | 35 | 1012.5 |
| 20260503180604 | 70 | 320 | 1.0 | 5.0 | 0.00 | 0.00 | 0.00 | 37 | 1012.7 |
| 20260503180104 | 71 | 321 | 2.0 | 10.0 | 0.00 | 0.00 | 0.00 | 37 | 1012.7 |
| 20260503175604 | 71 | 330 | 1.0 | 6.0 | 0.00 | 0.00 | 0.00 | 38 | 1012.6 |
| 20260503174604 | 70 | 310 | 1.0 | 3.0 | 0.00 | 0.00 | 0.00 | 38 | 1012.7 |
| 20260503174104 | 70 | 325 | 3.0 | 6.0 | 0.00 | 0.00 | 0.00 | 37 | 1012.7 |
| 20260503172104 | 68 | 331 | 1.0 | 3.0 | 0.00 | 0.00 | 0.00 | 39 | 1013.0 |
| 20260503171604 | 68 | 327 | 2.0 | 6.0 | 0.00 | 0.00 | 0.00 | 39 | 1013.0 |
| 20260503170604 | 68 | 315 | 1.0 | 3.0 | 0.00 | 0.00 | 0.00 | 39 | 1013.0 |
| 20260503170104 | 68 | 316 | 0.0 | 3.0 | 0.00 | 0.00 | 0.00 | 40 | 1013.0 |
| 20260503160104 | 64 | 342 | 2.0 | 3.0 | 0.00 | 0.00 | 0.00 | 45 | 1013.5 |
| 20260503150604 | 56 | 198 | 0.0 | 0.0 | 0.00 | 0.00 | 0.00 | 66 | 1013.7 |
| 20260503150104 | 55 | 198 | 0.0 | 0.0 | 0.00 | 0.00 | 0.00 | 68 | 1013.8 |
| 20260503140104 | 46 | 223 | 0.0 | 0.0 | 0.00 | 0.00 | 0.00 | 81 | 1013.7 |
| 20260503131103 | 46 | 242 | 0.0 | 0.0 | 0.00 | 0.00 | 0.00 | 82 | 1013.3 |
| 20260503130604 | 46 | 242 | 0.0 | 0.0 | 0.00 | 0.00 | 0.00 | 82 | 1013.3 |
| 20260503130104 | 46 | 242 | 0.0 | 0.0 | 0.00 | 0.00 | 0.00 | 82 | 1013.3 |
| 20260503120104 | 46 | 287 | 0.0 | 0.0 | 0.00 | 0.00 | 0.00 | 80 | 1013.4 |
| 20260503110604 | 47 | 288 | 0.0 | 0.0 | 0.00 | 0.00 | 0.00 | 80 | 1013.4 |
| 20260503110104 | 47 | 288 | 0.0 | 0.0 | 0.00 | 0.00 | 0.00 | 79 | 1013.4 |
| 20260503100104 | 49 | 288 | 0.0 | 0.0 | 0.00 | 0.00 | 0.00 | 76 | 1013.0 |
| 20260503090104 | 51 | 288 | 0.0 | 0.0 | 0.00 | 0.00 | 0.00 | 71 | 1013.1 |
| 20260503081604 | 52 | 288 | 0.0 | 0.0 | 0.00 | 0.00 | 0.00 | 69 | 1013.4 |
| 20260503080604 | 53 | 288 | 0.0 | 0.0 | 0.00 | 0.00 | 0.00 | 68 | 1013.2 |
| 20260503080104 | 53 | 288 | 0.0 | 0.0 | 0.00 | 0.00 | 0.00 | 67 | 1013.1 |
| 20260503072604 | 54 | 288 | 0.0 | 0.0 | 0.00 | 0.00 | 0.00 | 66 | 1012.9 |
| 20260503072104 | 55 | 288 | 0.0 | 0.0 | 0.00 | 0.00 | 0.00 | 65 | 1012.8 |
| 20260503071604 | 55 | 288 | 0.0 | 0.0 | 0.00 | 0.00 | 0.00 | 64 | 1012.7 |
| 20260503071104 | 55 | 288 | 0.0 | 0.0 | 0.00 | 0.00 | 0.00 | 65 | 1012.8 |
| 20260503070604 | 55 | 288 | 0.0 | 0.0 | 0.00 | 0.00 | 0.00 | 64 | 1012.8 |